Regional Weather Roundup
Issued by NWS

Home | Current Version | Previous Version | Graphics & Text | Print | Product List | Glossary On
Versions: 1 2 3 4 5 6 7 8 9 10 11 12 13 14 15 16 17 18 19 20 21 22 23 24 25 26 27 28 29 30 31 32 33 34 35 36 37 38 39 40 41 42 43 44 45 46 47 48 49 50
000
ASUS43 KLSX 171007
RWRMO

WEATHER SUMMARY FOR MISSOURI
NATIONAL WEATHER SERVICE SPRINGFIELD MO
400 AM CST SAT FEB 17 2018

NOTE: "FAIR" INDICATES FEW OR NO CLOUDS BELOW 12,000 FEET WITH NO
       SIGNIFICANT WEATHER AND/OR OBSTRUCTIONS TO VISIBILITY.
       CURRENT SKY AND/OR WEATHER CONDITIONS ARE NOT AVAILABLE FOR
       CHILLICOTHE AND FARMINGTON.

MOZ001>031-035>038-043-044-053-054-171100-
...NORTHERN AND WESTERN MISSOURI...

CITY           SKY/WX    TMP DP  RH WIND       PRES   REMARKS
KANSAS CTY INT CLOUDY    32  10  40 S7        30.03F WCI  26
KANSAS C DTWN  CLOUDY    35  12  38 E3        30.05F
LEE`S SUMMIT   CLOUDY    33  17  51 SE9       30.03F WCI  25
ST JOSEPH      CLOUDY    31  11  43 S7        30.04F WCI  24
CHILLICOTHE      N/A     29   9  43 S5        30.08F WCI  24
KIRKSVILLE     CLOUDY    26  16  65 S10       30.08F WCI  16

$$
MOZ066>068-077>081-088>096-101>105-171100-
...SOUTHWEST MISSOURI...

CITY           SKY/WX    TMP DP  RH WIND       PRES   REMARKS
SPRINGFIELD    LGT RAIN  37  33  85 S14       30.06S WCI  28
JOPLIN         LGT RAIN  37  35  92 SE10      30.04F WCI  30

$$
MOZ032>034-039>042-045>050-055>058-069>072-171100-
...CENTRAL MISSOURI...

CITY           SKY/WX    TMP DP  RH WIND       PRES   REMARKS
COLUMBIA       CLOUDY    30  16  56 SE9       30.10F WCI  22
JEFFERSON CITY CLOUDY    32  19  58 SE6       30.13F WCI  26
ROLLA          CLOUDY    32  25  75 SE8       30.11S WCI  25
SEDALIA        CLOUDY    31  17  56 SE8       30.09F WCI  23
WHITEMAN AFB   CLOUDY    30  13  48 E3        30.02F
WARRENSBURG    CLOUDY    32  14  47 E6        30.05F WCI  26
OSAGE BEACH    CLOUDY    34  26  72 CALM      30.13R

$$
MOZ051-052-059>065-171100-
...EAST CENTRAL MISSOURI...

CITY           SKY/WX    TMP DP  RH WIND       PRES   REMARKS
ST LOUIS INTL  CLOUDY    31  24  75 E8        30.16F WCI  23
SPIRIT OF STL  CLOUDY    30  25  81 E3        30.15F
ST CHARLES     CLOUDY    28  22  78 E3        30.17F

$$
MOZ072>076-082>087-097>100-106>115-171100-
...SOUTH CENTRAL AND SOUTHEAST MISSOURI...

CITY           SKY/WX    TMP DP  RH WIND       PRES   REMARKS
CAPE GIRARDEAU FAIR      35  30  82 E6        30.14F
FARMINGTON     MOCLDY    33  28  81 E6        30.12F WCI  28
POPLAR BLUFF   CLOUDY    36  31  82 E3        30.15F
WEST PLAINS    LGT RAIN  34  31  88 SE6       30.10F WCI  29

$$



USA.gov is the U.S. government's official web portal to all federal, state and local government web resources and services.